This demonstration page uses our WeatherBlox Daily Observations layout. Learn more.

Left ArrowRight Arrow

38.20091, -84.87328

Hourly Observations for May 3, 2020

Temp ( °F °C ) Dew Point ( °F °C ) Humidity (%) Winds ( mph kmh ) Pressure ( in mb ) Visibility ( mi km ) Precip ( " mm )
12:53 am 00:53 Partly Cloudy 69 20.6 54 12.2 59 59 SW 7 11 29.92 1013 10 16 0.00 0.00
1:53 am 01:53 Clear 68 20 54 12.2 61 61 SSW 7 11 29.91 1013 10 16 0.00 0.00
2:53 am 02:53 Clear 68 20 54 12.2 61 61 SW 7 11 29.91 1013 10 16 0.00 0.00
3:53 am 03:53 Mostly Cloudy 66 18.9 55 12.8 68 68 SSW 5 7 29.93 1014 10 16 0.00 0.00
4:53 am 04:53 Mostly Cloudy 67 19.4 55 12.8 66 66 SW 5 7 29.92 1013 10 16 0.00 0.00
5:53 am 05:53 Cloudy 67 19.4 56 13.3 68 68 SSW 7 11 29.92 1013 10 16 0.00 0.00
6:53 am 06:53 Sunny 65 18.3 55 12.8 70 70 SSW 7 11 29.93 1014 10 16 0.00 0.00
7:53 am 07:53 Mostly Sunny 66 18.9 56 13.3 70 70 S 7 11 29.94 1014 10 16 0.00 0.00
8:53 am 08:53 Cloudy 69 20.6 57 13.9 66 66 SSW 10 17 29.93 1014 10 16 0.00 0.00
9:53 am 09:53 Mostly Cloudy 72 22.2 59 15 64 64 SW 13 20 29.92 1013 10 16 0.00 0.00
10:53 am 10:53 Cloudy 74 23.3 60 15.6 62 62 WSW 9 15 29.91 1013 10 16 0.00 0.00
11:53 am 11:53 Cloudy 76 24.4 61 16.1 60 60 WSW 10 17 29.89 1012 10 16 0.00 0.00
12:53 pm 12:53 Mostly Cloudy 77 25 63 17.2 62 62 WSW 10 17 29.88 1012 10 16 0.00 0.00
1:53 pm 13:53 Sunny 81 27.2 63 17.2 54 54 WSW 10 17 29.83 1010 10 16 0.00 0.00
2:53 pm 14:53 Cloudy 77 25 62 16.7 60 60 SW 13 20 29.83 1010 10 16 0.00 0.00
3:53 pm 15:53 Cloudy 79 26.1 63 17.2 58 58 WSW 9 15 29.80 1009 10 16 0.00 0.00
4:39 pm 16:39 Cloudy with Nearby Thunderstorms 77 25 62 16.7 60 60 WSW 6 9 29.76 1008 9 14 0.00 0.00
4:50 pm 16:50 Cloudy with Thunderstorms 75 24 63 17 65 65 WNW 14 22 29.78 1008 10 16 0.00 0.00
4:53 pm 16:53 Cloudy with Thunderstorms 73 22.8 63 17.2 71 71 NW 20 31 29.79 1009 9 14 0.00 0.00
5:14 pm 17:14 Cloudy with Nearby Thunderstorms 68 20 65 18.3 90 90 NNW 13 20 29.79 1009 2 3 0.07 1.78
5:18 pm 17:18 Cloudy with Thunderstorms 68 20 64 17.8 87 87 NNW 10 17 29.80 1009 3 5 0.08 2.03
5:37 pm 17:37 Cloudy with Nearby Thunderstorms 67 19.4 64 17.8 91 91 N 7 11 29.79 1009 8 13 0.09 2.29
5:50 pm 17:50 Cloudy with Light Rain 68 20 64 18 88 88 NNW 9 15 29.79 1009 9 14 0.09 2.29
5:53 pm 17:53 Cloudy with Light Rain 68 20 64 17.8 87 87 NNW 10 17 29.80 1009 9 14 0.09 2.29
6:34 pm 18:34 Cloudy with Light Rain 66 18.9 61 16.1 84 84 NNW 9 15 29.80 1009 3 4 0.05 1.27
6:41 pm 18:41 Cloudy with Rain 66 18.9 61 16.1 84 84 NNW 8 13 29.80 1009 6 10 0.06 1.52
6:53 pm 18:53 Cloudy with Light Rain 65 18.3 61 16.1 87 87 NNW 10 17 29.81 1010 8 13 0.06 1.52
7:21 pm 19:21 Cloudy with Light Rain 63 17.2 59 15 87 87 NNW 8 13 29.82 1010 7 11 0.05 1.27
7:53 pm 19:53 Cloudy 62 16.7 59 15 90 90 W 3 6 29.84 1011 10 16 0.08 2.03
8:53 pm 20:53 Cloudy 63 17.2 59 15 87 87 W 3 6 29.85 1011 10 16 0.00 0.00
9:53 pm 21:53 Cloudy 63 17.2 58 14.4 84 84 NW 6 9 29.88 1012 10 16 0.00 0.00
10:53 pm 22:53 Cloudy 62 16.7 58 14.4 86 86 Calm 29.90 1013 10 16 0.00 0.00
11:53 pm 23:53 Cloudy 60 15.6 52 11.1 75 75 NW 5 7 29.93 1013 10 16 0.00 0.00

Powered by AerisWeather